Probability
42 42 39 29 32 26 19 13 10 10 10 13 6 3 3 3 3 3 3 3 3 0 0 0 0 0 0 0 0 0 0 0 0 0 0 0 0 0 0 0 0 0 0
42 42 39 32 23 19 19 19 13 10 10 6 10 10 10 10 3 3 3 3 0 0 0 0 0 0 0 0 0 0 0 0 0 0 0 0 0 0 0 0 0 0 0
35 35 32 26 19 16 16 16 10 10 3 3 3 3 3 6 6 6 3 3 3 3 3 0 0 0 0 0 0 0 0 0 0 0 0 0 0 0 0 0 0 0 0
39 32 26 26 23 16 13 10 10 10 10 6 3 3 3 3 3 3 3 3 3 0 3 0 0 0 0 0 0 0 0 0 0 0 0 0 0 0 0 0 0 0 0
32 29 26 23 19 13 13 13 10 10 6 6 6 3 3 3 3 3 3 3 3 3 0 0 0 0 0 0 0 0 0 0 0 0 0 0 0 0 0 0 0 0 0
29 29 19 16 10 13 10 10 10 6 6 6 6 6 3 3 3 0 0 0 0 0 0 0 0 0 0 0 0 0 0 0 0 0 0 0 0 0 0 0 0 0 0
19 23 19 16 16 10 10 10 10 6 6 6 6 6 6 0 0 0 0 0 0 0 0 0 0 0 0 0 0 0 0 0 0 0 0 0 0 0 0 0 0 0 0
19 19 13 13 13 13 10 10 6 6 6 6 6 3 3 0 0 0 0 0 0 0 0 0 0 0 0 0 0 0 0 0 0 0 0 0 0 0 0 0 0 0 0
19 19 13 13 13 13 13 6 3 3 3 3 3 3 3 3 0 0 0 0 0 0 0 0 0 0 0 0 0 0 0 0 0 0 0 0 0 0 0 0 0 0 0
13 10 10 10 10 10 6 3 3 3 3 3 3 3 3 3 0 0 0 0 0 0 0 0 0 0 0 0 0 0 0 0 0 0 0 0 0 0 0 0 0 0 0
3 6 10 10 6 6 0 0 0 3 3 3 3 3 3 3 0 0 0 0 0 0 0 0 0 0 0 0 0 0 0 0 0 0 0 0 0 0 0 0 0 0 0
3 3 3 0 0 0 0 0 0 0 0 0 0 0 3 0 0 0 0 0 0 0 0 0 0 0 0 0 0 0 0 0 0 0 0 0 0 0 0 0 0 0 0
3 3 0 0 0 0 0 0 0 0 0 0 0 0 0 0 0 0 0 0 0 0 0 0 0 0 0 0 0 0 0 0 0 0 0 0 0 0 0 0 0 0 0
0 0 0 0 0 0 0 0 0 0 0 0 0 0 0 0 0 0 0 0 0 0 0 0 0 0 0 0 0 0 0 0 0 0 0 0 0 0 0 0 0 0 0
0 0 0 0 0 0 0 0 0 0 0 0 0 0 0 0 0 0 0 0 0 0 0 0 0 0 0 0 0 0 0 0 0 0 0 0 0 0 0 0 0 0 0
0 0 0 0 0 0 0 0 0 0 0 0 0 0 0 0 0 0 0 0 0 0 0 0 0 0 0 0 0 0 0 0 0 0 0 0 0 0 0 0 0 0 0
0 0 0 0 0 0 0 0 0 0 0 0 0 0 0 0 0 0 0 0 0 0 0 0 0 0 0 0 0 0 0 0 0 0 0 0 0 0 0 0 0 0 0
0 0 0 0 0 0 0 0 0 0 0 0 0 0 0 0 0 0 0 0 0 0 0 0 0 0 0 0 0 0 0 0 0 0 0 0 0 0 0 0 0 0 0
0 0 0 0 0 0 0 0 0 0 0 0 0 0 0 0 0 0 0 0 0 0 0 0 0 0 0 0 0 0 0 0 0 0 0 0 0 0 0 0 0 0 0
0 0 0 0 0 0 0 0 0 0 0 0 0 0 0 0 0 0 0 0 0 0 0 0 0 0 0 0 0 0 0 0 0 0 0 0 0 0 0 0 0 0 0
0 0 0 0 0 0 0 0 0 0 0 0 0 0 0 0 0 0 0 0 0 0 0 0 0 0 0 0 0 0 0 0 0 0 0 0 0 0 0 0 0 0 0
0 0 0 0 0 0 0 0 0 0 0 0 0 0 0 0 0 0 0 0 0 0 0 0 0 0 0 0 0 0 0 0 0 0 0 0 0 0 0 0 0 0 0
0 0 0 0 0 0 0 0 0 0 0 0 0 0 0 0 0 0 0 0 0 0 0 0 0 0 0 0 0 0 0 0 0 0 0 0 0 0 0 0 0 0 0
0 0 0 0 0 0 0 0 0 0 0 0 0 0 0 0 0 0 0 0 0 0 0 0 0 0 0 0 0 0 0 0 0 0 0 0 0 0 0 0 0 0 0
0 0 0 0 0 0 0 0 0 0 0 0 0 0 0 0 0 0 0 0 0 0 0 0 0 0 0 0 0 0 0 0 0 0 0 0 0 0 0 0 0 0 0
0 0 0 0 0 0 0 0 0 0 0 0 0 0 0 0 0 0 0 0 0 0 0 0 0 0 0 0 0 0 0 0 0 0 0 0 0 0 0 0 0 0 0
Height
5871 5871 5871 5872 5872 5872 5872 5872 5872 5873 5873 5873 5874 5874 5875 5875 5875 5875 5875 5875 5875 5875 5875 5875 5875 5875 5875 5875 5875 5875 5875 5875 5875 5875 5873 5873 5872 5871 5870 5870 5869 5868 5867
5868 5868 5868 5869 5869 5869 5869 5869 5869 5869 5869 5870 5870 5871 5871 5871 5871 5870 5870 5870 5870 5870 5870 5870 5870 5869 5869 5869 5869 5869 5868 5868 5868 5868 5867 5866 5865 5864 5863 5863 5862 5861 5860
5865 5864 5865 5865 5865 5865 5865 5865 5865 5866 5866 5866 5866 5867 5867 5867 5866 5866 5866 5865 5865 5865 5865 5864 5864 5864 5864 5863 5863 5862 5862 5861 5861 5861 5860 5859 5858 5857 5856 5855 5854 5853 5852
5862 5862 5862 5862 5862 5861 5861 5861 5862 5862 5862 5863 5863 5863 5863 5862 5862 5862 5861 5861 5860 5860 5860 5859 5859 5858 5858 5857 5857 5856 5855 5855 5854 5854 5853 5852 5851 5850 5848 5847 5846 5845 5843
5859 5859 5859 5859 5858 5858 5858 5858 5858 5858 5858 5859 5859 5858 5858 5858 5858 5857 5856 5856 5856 5855 5855 5854 5854 5853 5852 5851 5851 5850 5849 5848 5847 5846 5845 5844 5843 5842 5840 5839 5837 5836 5834
5856 5856 5855 5855 5855 5854 5854 5854 5854 5855 5854 5855 5855 5854 5854 5854 5853 5853 5852 5852 5851 5850 5850 5849 5848 5848 5847 5845 5844 5843 5842 5841 5840 5839 5837 5836 5835 5834 5832 5830 5828 5827 5825
5853 5853 5852 5852 5851 5851 5851 5851 5851 5851 5850 5850 5850 5850 5849 5849 5849 5848 5847 5847 5846 5845 5844 5844 5843 5842 5840 5839 5837 5836 5834 5833 5832 5830 5829 5828 5827 5825 5823 5821 5819 5818 5816
5849 5849 5849 5848 5848 5848 5848 5847 5847 5847 5846 5846 5845 5845 5845 5844 5844 5843 5843 5842 5841 5840 5839 5838 5837 5835 5834 5832 5831 5829 5827 5825 5823 5821 5820 5819 5818 5816 5814 5812 5810 5808 5806
5846 5846 5846 5845 5845 5845 5844 5844 5843 5843 5842 5842 5841 5840 5840 5840 5839 5838 5837 5836 5835 5834 5833 5832 5831 5829 5827 5826 5824 5822 5819 5818 5815 5813 5811 5810 5808 5807 5805 5803 5800 5798 5795
5842 5842 5842 5842 5842 5841 5840 5840 5839 5839 5838 5838 5837 5836 5836 5835 5834 5833 5832 5831 5830 5829 5828 5826 5824 5823 5821 5819 5817 5815 5812 5810 5808 5806 5803 5801 5799 5797 5795 5793 5790 5788 5785
5839 5839 5839 5839 5838 5837 5836 5836 5835 5834 5834 5833 5832 5832 5831 5830 5830 5828 5827 5826 5825 5823 5822 5820 5818 5817 5815 5813 5810 5808 5805 5803 5801 5798 5795 5793 5791 5788 5786 5783 5780 5777 5774
5835 5835 5835 5835 5834 5834 5833 5832 5831 5830 5829 5828 5828 5827 5826 5825 5824 5823 5822 5820 5819 5818 5816 5814 5812 5810 5808 5806 5804 5801 5799 5796 5793 5790 5787 5784 5781 5778 5775 5772 5768 5765 5762
5831 5830 5831 5831 5830 5829 5829 5828 5827 5826 5825 5824 5823 5822 5821 5819 5818 5817 5816 5814 5813 5811 5810 5808 5806 5804 5802 5799 5797 5794 5791 5788 5785 5782 5779 5775 5772 5768 5765 5761 5757 5754 5750
5826 5826 5826 5826 5825 5825 5824 5823 5822 5821 5820 5819 5818 5817 5815 5814 5813 5811 5810 5808 5807 5805 5803 5801 5799 5797 5795 5792 5790 5787 5783 5780 5777 5773 5770 5766 5762 5758 5755 5751 5747 5742 5738
5821 5821 5821 5821 5820 5819 5819 5818 5817 5816 5815 5814 5813 5811 5810 5808 5807 5805 5804 5802 5800 5799 5797 5795 5792 5790 5787 5784 5781 5778 5775 5771 5768 5764 5760 5756 5752 5748 5744 5740 5736 5731 5727
5816 5816 5816 5815 5815 5814 5813 5812 5811 5810 5809 5808 5807 5805 5804 5802 5801 5799 5797 5796 5794 5792 5790 5788 5785 5783 5780 5777 5773 5770 5766 5763 5759 5755 5751 5747 5742 5738 5734 5729 5725 5720 5716
5810 5810 5810 5810 5809 5808 5808 5807 5806 5805 5804 5802 5801 5799 5798 5796 5794 5793 5791 5789 5787 5786 5783 5781 5778 5775 5772 5769 5765 5761 5757 5753 5749 5745 5741 5737 5733 5728 5723 5719 5714 5709 5704
5804 5804 5804 5804 5803 5803 5802 5801 5800 5799 5798 5796 5795 5793 5791 5790 5789 5787 5785 5783 5781 5779 5776 5773 5770 5767 5764 5760 5756 5752 5748 5744 5740 5736 5732 5727 5723 5718 5713 5708 5703 5698 5694
5798 5799 5798 5798 5797 5797 5796 5795 5794 5794 5792 5791 5789 5787 5786 5784 5783 5781 5779 5777 5774 5771 5769 5766 5762 5759 5755 5751 5747 5743 5739 5735 5731 5726 5722 5717 5713 5708 5703 5698 5693 5689 5684
5793 5793 5792 5792 5792 5791 5790 5790 5789 5788 5786 5785 5783 5782 5780 5779 5777 5774 5772 5770 5767 5764 5761 5757 5754 5750 5746 5742 5738 5734 5730 5726 5721 5717 5712 5708 5703 5698 5694 5689 5684 5680 5675
5788 5787 5787 5787 5786 5786 5785 5784 5783 5782 5780 5779 5777 5776 5774 5772 5770 5767 5765 5762 5759 5756 5752 5748 5745 5741 5737 5733 5729 5725 5721 5716 5712 5708 5703 5699 5694 5689 5684 5680 5675 5671 5666
5783 5782 5782 5781 5781 5780 5779 5777 5776 5776 5774 5773 5771 5770 5768 5765 5763 5760 5757 5754 5751 5747 5744 5740 5736 5732 5728 5724 5720 5716 5711 5707 5703 5699 5694 5690 5685 5681 5676 5672 5667 5662 5658
5777 5777 5776 5776 5775 5774 5773 5772 5771 5769 5768 5766 5765 5763 5761 5758 5756 5753 5749 5746 5743 5739 5735 5731 5727 5723 5719 5716 5711 5707 5703 5699 5695 5690 5686 5681 5677 5672 5668 5663 5659 5654 5650
5772 5771 5771 5770 5769 5768 5767 5766 5764 5763 5762 5760 5758 5756 5753 5751 5748 5745 5742 5738 5735 5731 5727 5723 5719 5715 5711 5707 5703 5699 5695 5691 5686 5682 5678 5673 5669 5664 5660 5655 5651 5647 5642
5766 5765 5765 5764 5763 5762 5761 5760 5758 5757 5755 5753 5751 5749 5746 5743 5740 5737 5734 5730 5727 5723 5719 5715 5712 5708 5704 5700 5695 5691 5687 5683 5678 5674 5670 5665 5661 5656 5652 5648 5643 5639 5635
5760 5760 5759 5758 5757 5756 5755 5754 5752 5750 5749 5746 5744 5742 5739 5736 5733 5730 5726 5723 5719 5716 5712 5708 5704 5700 5696 5692 5688 5683 5679 5675 5671 5666 5662 5657 5653 5649 5645 5641 5636 5632 5628
Wind_Speed
14 14 14 14 14 14 13 14 13 13 14 14 15 15 16 16 17 18 19 19 20 20 20 20 21 22 22 22 23 23 24 24 24 24 26 26 27 27 27 27 27 28 28
14 15 14 14 14 14 14 14 14 14 14 15 15 16 16 17 18 19 19 19 19 19 20 20 21 21 22 22 23 24 25 26 26 26 26 27 27 28 28 29 28 29 30
13 13 14 14 14 14 14 14 14 14 14 14 15 16 17 18 18 19 19 19 19 20 20 19 21 21 22 23 24 24 26 26 26 26 27 28 28 29 29 29 30 31 32
12 12 13 13 13 13 13 13 13 14 15 15 15 16 17 18 18 18 19 19 19 19 19 19 20 22 23 24 24 25 26 26 26 26 27 28 29 30 30 31 31 32 34
11 11 12 12 12 13 13 13 14 14 15 15 16 16 17 17 17 17 18 18 18 19 19 20 20 21 22 23 25 26 26 27 27 28 29 30 30 31 31 32 33 34 35
12 12 12 13 13 13 14 14 14 14 15 16 16 16 17 17 17 17 18 18 19 19 20 21 21 23 24 25 26 27 27 28 28 29 30 30 31 31 32 34 34 35 36
12 12 12 12 12 12 13 14 15 15 15 16 16 17 17 18 19 19 19 19 20 21 21 22 23 24 25 26 26 26 27 28 29 31 31 32 32 32 34 35 36 36 36
12 12 12 12 12 13 13 14 14 15 16 16 17 18 19 19 20 20 20 21 21 21 22 22 22 23 24 25 26 27 28 29 29 30 31 32 33 33 34 35 36 37 37
11 12 12 12 12 13 14 15 16 16 17 17 18 19 19 20 20 21 21 21 21 21 22 23 24 24 24 25 26 27 28 29 30 30 31 32 32 33 34 35 36 37 38
13 13 14 13 13 14 15 15 16 17 18 18 19 19 19 19 19 19 20 21 21 22 23 24 24 24 25 26 26 27 28 29 30 31 31 32 33 35 35 36 38 39 40
14 15 14 14 14 14 14 14 15 16 17 18 18 18 18 19 19 20 21 21 21 22 23 24 24 25 25 26 27 28 28 29 30 31 32 33 35 36 37 39 40 40 41
15 15 15 15 15 15 15 16 16 16 16 17 18 18 19 19 20 21 21 21 22 23 24 25 24 25 26 27 27 28 29 30 31 33 34 35 36 37 39 39 38 39 40
16 16 16 16 16 16 17 17 17 17 17 17 18 18 19 20 21 21 21 22 22 23 24 25 25 25 26 27 28 29 30 31 32 33 35 36 37 37 38 39 40 41 42
18 17 17 17 18 18 18 18 18 18 18 18 19 19 20 21 21 22 23 23 24 24 25 26 26 27 28 29 30 31 32 32 33 34 35 36 37 38 39 40 41 41 42
19 19 18 19 19 19 19 19 19 19 19 20 20 20 21 21 22 23 24 24 25 26 27 27 27 28 29 30 30 32 33 34 35 35 35 36 37 39 39 40 40 41 41
20 20 21 20 20 20 20 19 19 20 20 20 20 21 21 22 23 24 24 24 25 26 26 26 27 29 30 31 32 33 34 34 35 36 37 37 38 38 39 39 40 41 41
21 20 20 20 20 20 20 20 21 21 21 21 21 21 22 22 22 23 24 25 26 26 26 27 28 30 31 32 33 34 34 35 36 36 37 38 38 39 39 40 41 41 41
20 19 19 20 20 20 21 21 21 21 20 21 21 22 22 22 22 23 24 25 26 26 28 29 31 32 33 33 34 35 35 36 37 37 38 38 39 39 39 40 40 40 39
19 19 19 19 20 20 20 20 20 21 21 21 22 21 21 21 23 24 25 26 27 28 29 30 31 33 33 34 34 35 35 36 37 37 37 38 38 39 39 39 38 38 37
19 19 19 19 19 20 20 20 20 21 21 21 21 21 22 23 24 25 26 27 28 30 31 31 32 33 34 34 34 35 36 36 36 36 37 37 37 37 37 36 36 35 35
17 17 18 19 20 20 20 21 20 20 21 21 22 23 24 25 26 27 28 29 30 31 33 33 34 34 34 34 35 35 35 35 36 35 35 36 36 35 35 34 34 34 34
18 19 19 20 21 21 21 21 20 21 22 22 23 24 25 26 27 28 29 30 32 33 34 34 34 34 34 34 34 34 34 34 34 34 34 34 34 34 34 33 33 33 33
18 19 20 20 21 21 21 21 21 21 22 23 24 25 26 28 29 30 30 32 33 33 33 32 32 32 32 33 33 33 33 33 34 34 33 33 33 33 33 32 32 32 32
18 18 19 19 20 20 21 21 21 22 23 24 25 26 27 29 30 30 31 31 32 32 31 31 31 31 31 32 32 32 32 33 33 32 32 32 32 32 32 31 31 31 31
18 18 18 19 20 20 21 22 22 23 24 25 25 26 28 29 29 29 30 30 30 30 30 30 30 31 31 31 31 32 32 32 32 32 32 32 32 31 31 30 30 31 31
18 18 19 20 21 21 22 22 23 23 24 25 26 27 27 27 28 27 28 28 28 28 29 30 30 30 31 31 31 31 32 32 32 31 31 31 31 30 30 30 30 30 30
Wind_Direction
272 271 272 273 272 269 269 265 263 261 262 263 263 263 264 266 268 270 271 272 272 271 267 265 267 266 266 266 267 268 268 269 270 271 273 274 274 275 275 276 276 276 276
270 271 269 269 268 268 268 267 265 263 262 262 264 264 264 267 268 270 273 274 275 274 271 271 268 266 269 268 269 269 269 270 271 271 273 275 275 275 276 277 277 277 276
271 273 269 269 270 268 266 267 266 264 265 266 265 266 269 270 270 270 274 275 275 275 273 273 270 269 272 272 272 272 272 271 272 272 273 274 275 276 278 279 278 278 277
273 274 273 272 273 269 265 266 266 265 266 268 268 268 270 271 273 273 275 275 274 275 273 273 271 272 275 274 273 274 273 272 273 274 275 275 276 278 278 278 278 278 279
274 275 274 274 274 271 268 266 266 265 265 266 269 269 271 272 274 273 274 275 277 277 276 277 276 274 274 275 276 277 277 277 277 278 278 279 279 280 279 279 278 278 280
272 277 276 274 275 272 267 267 268 270 268 267 270 270 274 275 274 275 274 276 276 276 277 279 278 277 278 280 282 279 278 279 278 279 279 279 279 278 279 279 280 281 282
272 276 279 277 277 275 272 272 271 271 270 273 271 272 276 276 275 275 275 276 277 277 278 279 280 279 280 282 283 282 281 280 280 280 279 280 280 280 281 281 281 282 283
275 278 280 279 279 277 276 277 274 275 275 272 270 271 273 276 275 275 277 278 278 279 280 281 282 282 283 282 283 283 283 283 283 281 279 281 282 283 283 283 283 284 285
280 280 284 286 284 281 280 280 279 278 276 274 274 272 273 276 276 276 276 277 279 281 282 282 283 282 283 284 285 286 286 285 285 284 283 283 284 285 286 286 286 286 287
276 278 280 285 288 286 282 281 280 279 276 274 274 274 277 279 279 281 282 281 281 282 283 284 285 286 286 286 287 289 289 288 287 288 287 285 285 285 287 287 287 287 288
274 275 277 281 289 291 289 286 284 281 280 278 278 280 280 282 283 283 284 283 284 285 286 286 286 289 290 290 291 292 291 289 290 291 290 288 287 287 288 289 289 289 290
279 277 279 282 285 288 290 293 293 290 289 287 284 283 282 282 281 281 282 283 285 287 288 289 288 291 293 294 294 293 292 291 292 293 293 293 291 291 292 292 292 292 292
280 278 279 282 284 286 288 291 292 290 287 287 285 284 283 283 283 283 283 285 287 288 290 291 290 292 294 295 295 294 294 295 296 296 295 295 294 294 295 295 295 296 296
276 278 279 281 283 284 286 288 289 287 287 288 287 285 285 285 284 285 286 286 288 290 292 293 292 293 294 295 295 295 296 297 298 298 297 297 297 298 298 298 298 298 298
274 276 278 280 282 283 284 285 285 286 287 288 288 286 285 285 286 287 288 289 290 292 294 294 294 295 296 297 298 298 298 299 299 300 300 301 301 301 301 302 302 302 301
272 274 277 279 280 282 285 285 284 287 288 288 288 287 285 286 287 287 288 290 293 294 295 296 298 298 298 299 300 300 300 301 301 302 303 303 303 303 303 303 303 303 303
270 273 275 277 279 282 284 285 286 287 288 288 288 289 288 288 288 288 288 290 292 294 296 298 300 301 301 301 301 301 302 302 303 304 304 305 305 305 304 304 305 305 304
268 270 274 277 279 282 285 285 286 287 287 288 289 290 289 288 287 289 290 291 292 294 297 299 299 300 300 301 301 302 303 304 304 304 304 305 306 306 306 306 306 306 306
269 271 273 277 280 282 284 284 285 285 287 289 289 289 291 291 290 292 293 295 296 297 298 299 300 300 301 302 302 303 304 304 304 305 305 305 306 307 307 307 308 308 308
273 273 274 277 280 282 283 283 284 285 288 289 288 289 291 293 295 296 297 298 299 300 301 301 302 303 304 304 305 305 305 305 305 305 306 307 307 308 308 309 309 309 309
271 273 276 279 281 281 282 282 282 283 286 288 289 291 293 295 296 297 298 300 302 302 303 303 303 304 305 305 305 305 305 306 307 308 308 308 309 309 309 310 310 310 311
274 276 278 280 282 282 282 283 283 284 286 288 291 292 294 296 298 299 300 302 303 304 305 306 306 306 307 307 308 308 309 309 310 310 311 311 311 312 312 312 313 313 313
278 279 280 281 281 282 283 284 285 287 289 291 293 295 297 299 300 301 302 304 305 306 307 307 308 308 309 309 310 311 311 311 311 311 312 312 312 312 312 312 313 313 314
277 278 280 281 283 285 287 288 289 291 293 294 295 297 299 301 302 303 305 306 307 308 308 309 309 310 311 311 311 311 311 311 311 311 311 311 311 311 312 313 313 314 314
276 275 279 284 286 288 289 291 292 294 295 297 298 300 302 304 305 306 307 309 310 310 311 311 311 312 312 312 312 312 312 312 312 312 312 312 312 313 313 314 314 315 315
276 277 281 284 287 289 291 293 295 297 298 300 302 304 305 306 306 308 309 310 311 312 313 313 313 313 312 312 312 312 313 314 314 314 314 314 314 314 314 314 315 316 317